Weather in Chernovka

Russia / Novosibirsk Oblast     54°09′09″N   79°59′48″E
temp.,
°C
wind,
m/s
gust,
m/s
humid.,
%
clouds,
%
prec.,
mm/h
press.,
hPa
HPBL,
m
27 february, sat
sat2701:00−27sw51096100 0.1 1036301
04:00−27sw4996100 0.0 1036274
07:00−27sw4797100 0.1 1037252
10:00−27sw4896100 0.1 1037280
13:00−25sw4695100 0.1 1037327
16:00−24sw369399 0.0 1038336
19:00−27ssw349676 0.0 103844
22:00−29ssw34970 0.0 103831
28 february, sun
sun2801:00−29s34960 0.0 103848
04:00−29s34983 0.0 103642
07:00−28sse449521 0.0 103659
10:00−26se489329 0.0 1034168
13:00−21se589059 0.0 1031271
16:00−17se5989100 0.0 1028395
19:00−13se4994100 0.2 1024417
22:00−11se61292100 0.1 1020436
1 march, mon
mon101:00−8se61295100 0.7 1016495
04:00−6se61295100 1.9 1011549
07:00−3s71396100 3.9 1008670
10:00+1sw81397100 1.1 1006764
13:00+1sw71398100 1.3 1005717
16:00+1sw71396100 0.1 1004978
19:00−1wsw81396100 0.8 1004791
22:00−3wsw6139197 0.2 1007661
2 march, tue
tue201:00−11wsw8149484 0.3 1009368
04:00−13w61194100 0.1 1013302
07:00−17wsw5997100 0.1 1016240
10:00−19wsw4898100 0.1 1018201
13:00−16wsw4694100 0.1 1019275
16:00−14sw359399 0.0 1018337
19:00−17ssw229798 0.0 101820
22:00−16se1297100 0.1 101728
3 march, wed
wed301:00−16se2297100 0.4 101622
04:00−16se0197100 0.3 101420
07:00−16nw0197100 0.8 101520
10:00−15w2296100 0.3 1016118
13:00−13w359299 0.4 1017416
16:00−12w4690100 0.1 1019579
19:00−15wsw3395100 0.1 102135
22:00−18sw3398100 0.0 102335